Montgomery, NY

1:51 AM EDT on October 21, 2019 (GMT -0400)
Orange County

Weather History for KMGJ - July, 2019

Change the Weather History Date:

Thursday, July 11, 2019

  Actual Average (WUND) Record (WUND)
Temperature  
Mean Temperature 75 °F -  
Max Temperature 84 °F - - (-1)
Min Temperature 66 °F - - (-1)
Cooling Degree Days 10    
Growing Degree Days 25 (Base 50)    
Moisture  
Dew Point 68 °F    
Average Humidity 85    
Maximum Humidity 100    
Minimum Humidity 53    
Precipitation  
Precipitation 0.05 in - - ()
Sea Level Pressure  
Sea Level Pressure 29.86 in    
Wind  
Wind Speed 3 mph (SSW)    
Max Wind Speed 12 mph    
Max Gust Speed -    
Visibility 10 miles    
Events Rain    
Averages and records for this station are not official NWS values.
T = Trace of Precipitation, MM = Missing Value Source: NWS Daily Summary

Daily Weather History Graph

Daily Weather History Graph

Search for Another Location

Airport or City:

Astronomy

Jul. 11, 2019 Rise Set
Actual Time 5:33 AM EDT 8:31 PM EDT
Civil Twilight 4:59 AM EDT 9:04 PM EDT
Nautical Twilight 4:17 AM EDT 9:47 PM EDT
Astronomical Twilight 3:27 AM EDT 10:36 PM EDT
Moon 3:40 PM EDT (7/11) 1:44 AM EDT (7/11)
Length of Visible Light 16h 05m
Length of Day
14h 58m
Waxing Gibbous, 74% of the Moon is Illuminated
Jul 11
Waxing Gibbous
Jul 16
Full
Jul 24
Last Quarter
Jul 31
New
Aug 7
First Quarter

Hourly Weather History & Observations

Time (EDT) Temp. Heat Index Dew Point Humidity Pressure Visibility Wind Dir Wind Speed Gust Speed Precip Events Conditions
12:54 AM 70.0 °F - 68.0 °F 93% 29.96 in 10.0 mi Calm Calm - N/A   Clear
1:54 AM 69.1 °F - 66.9 °F 93% 29.95 in 10.0 mi Calm Calm - N/A   Mostly Cloudy
2:54 AM 69.1 °F - 66.9 °F 93% 29.95 in 10.0 mi Calm Calm - N/A   Partly Cloudy
3:54 AM 69.1 °F - 68.0 °F 96% 29.95 in 10.0 mi SSW 3.5 mph - N/A   Mostly Cloudy
4:54 AM 69.1 °F - 66.9 °F 93% 29.94 in 10.0 mi Calm Calm - N/A   Clear
5:54 AM 66.9 °F - 66.0 °F 97% 29.95 in 7.0 mi Calm Calm - N/A   Clear
6:54 AM 70.0 °F - 68.0 °F 93% 29.96 in 10.0 mi South 3.5 mph - N/A   Overcast
7:54 AM 73.0 °F - 68.0 °F 84% 29.96 in 10.0 mi SW 5.8 mph - N/A   Clear
8:54 AM 75.0 °F - 68.0 °F 79% 29.95 in 10.0 mi SSW 6.9 mph - N/A   Clear
9:54 AM 81.0 °F 83.3 °F 66.9 °F 62% 29.92 in 10.0 mi SSW 6.9 mph - N/A   Clear
10:54 AM 82.0 °F 84.1 °F 66.0 °F 58% 29.91 in 10.0 mi WSW 10.4 mph - N/A   Partly Cloudy
11:54 AM 84.0 °F 85.8 °F 64.9 °F 53% 29.90 in 10.0 mi South 11.5 mph - N/A   Mostly Cloudy
12:54 PM 82.0 °F 83.4 °F 64.0 °F 54% 29.89 in 10.0 mi South 11.5 mph - N/A   Overcast
1:54 PM 82.9 °F 84.6 °F 64.9 °F 54% 29.87 in 10.0 mi South 9.2 mph - N/A   Overcast
2:54 PM 80.1 °F 82.3 °F 66.9 °F 64% 29.85 in 10.0 mi SSW 8.1 mph - 0.00 in   Overcast
3:54 PM 78.1 °F - 69.1 °F 74% 29.85 in 10.0 mi SW 9.2 mph - N/A   Overcast
4:36 PM 75.9 °F - 70.0 °F 82% 29.84 in 10.0 mi SSW 11.5 mph - N/A   Overcast
4:54 PM 75.9 °F - 70.0 °F 82% 29.83 in 10.0 mi South 8.1 mph - N/A   Overcast
5:22 PM 75.0 °F - 69.1 °F 82% 29.83 in 10.0 mi South 6.9 mph - 0.00 in Rain Light Rain
5:54 PM 73.0 °F - 70.0 °F 90% 29.83 in 10.0 mi South 4.6 mph - 0.01 in Rain Light Rain
6:26 PM 72.0 °F - 70.0 °F 93% 29.82 in 10.0 mi South 6.9 mph - 0.02 in Rain Light Rain
6:54 PM 72.0 °F - 70.0 °F 93% 29.82 in 10.0 mi South 3.5 mph - 0.03 in Rain Light Rain
7:40 PM 72.0 °F - 70.0 °F 93% 29.82 in 10.0 mi Calm Calm - 0.00 in   Mostly Cloudy
7:54 PM 72.0 °F - 70.0 °F 93% 29.81 in 10.0 mi Calm Calm - 0.00 in   Overcast
8:18 PM 72.0 °F - 70.0 °F 93% 29.82 in 10.0 mi NNW 3.5 mph - N/A   Overcast
8:54 PM 71.1 °F - 71.1 °F 100% 29.81 in 10.0 mi Calm Calm - 0.01 in   Overcast
9:35 PM 72.0 °F - 70.0 °F 93% 29.81 in 10.0 mi South 3.5 mph - 0.00 in Rain Light Rain
9:54 PM 72.0 °F - 70.0 °F 93% 29.79 in 10.0 mi Calm Calm - 0.00 in   Mostly Cloudy
10:05 PM 72.0 °F - 70.0 °F 93% 29.80 in 10.0 mi Calm Calm - N/A   Scattered Clouds
10:37 PM 71.1 °F - 70.0 °F 96% 29.79 in 10.0 mi Calm Calm - N/A   Mostly Cloudy
10:54 PM 71.1 °F - 70.0 °F 96% 29.78 in 10.0 mi NNE 3.5 mph - N/A   Mostly Cloudy
11:36 PM 71.1 °F - 70.0 °F 96% 29.78 in 10.0 mi Calm Calm - N/A   Overcast
11:54 PM 71.1 °F - 70.0 °F 96% 29.78 in 10.0 mi Calm Calm - N/A   Overcast